Regional Weather Roundup
Issued by NWS Upton, NY

Current Version | Previous Version | Text Only | Print | Product List | Glossary On
Versions: 1 2 3 4 5 6 7 8 9 10 11 12 13 14 15 16 17 18 19 20 21 22 23 24 25 26 27 28 29 30 31 32 33 34 35 36 37 38 39 40 41 42 43 44 45 46 47 48 49 50
000 ASUS41 KOKX 210508 RWROKX REGIONAL WEATHER ROUNDUP NATIONAL WEATHER SERVICE NEW YORK NY 1200 AM EST SAT JAN 21 2017 NOTE: "FAIR" INDICATES FEW OR NO CLOUDS BELOW 12,000 FEET WITH NO SIGNIFICANT WEATHER AND/OR OBSTRUCTIONS TO VISIBILITY. NYZ071-072-176-178-NJZ106-104-210600- NEW YORK CITY METRO AREA CITY SKY/WX TMP DP RH WIND PRES REMARKS Central Park CLOUDY 41 40 96 CALM 29.94S FOG Wall St Helipt CLOUDY 43 40 89 CALM 29.94R LaGuardia APRT CLOUDY 41 40 96 CALM 29.92S FOG Kennedy INTL CLOUDY 43 43 100 CALM 29.94R Breezy Point N/A 39 N/A N/A SE1 N/A Newark/Liberty DRIZZLE 42 41 96 SW3 29.93R FOG Teterboro CLOUDY 43 41 93 SW3 29.92R FOG $$ NYZ177-179-078>081-210600- LONG ISLAND NEW YORK CITY SKY/WX TMP DP RH WIND PRES REMARKS Jones Beach N/A 41 N/A N/A MISG N/A Matinecock PT NOT AVBL Farmingdale CLOUDY 42 40 92 CALM 29.91F FOG MacArthur/ISP CLOUDY 42 42 100 SW3 29.90F FOG Shirley LGT RAIN 42 42 100 SW3 29.91F Westhampton LGT RAIN 43 41 93 S5 29.92F FOG Southampton NOT AVBL Bridgehampton NOT AVBL East Hampton LGT RAIN 43 42 95 CALM 29.91F Montauk N/A 43 41 93 VRB3 29.93F $$ NYZ052-065-067-210600- HUDSON VALLEY CITY SKY/WX TMP DP RH WIND PRES REMARKS White Plains LGT RAIN 38 37 97 CALM 29.89F VSB 1 Newburgh LGT RAIN 37 37 100 CALM 29.90F FOG Montgomery CLOUDY 38 37 97 CALM 29.88F FOG Poughkeepsie CLOUDY 37 36 96 CALM 29.90F FOG Albany CLOUDY 39 33 79 S10 29.87F WCI 32 $$ NJZ001-105-106-008-010-013-015-019>022-104-210600- NEW JERSEY CITY SKY/WX TMP DP RH WIND PRES REMARKS Newark/Liberty DRIZZLE 42 41 96 SW3 29.93R FOG Teterboro CLOUDY 43 41 93 SW3 29.92R FOG Caldwell CLOUDY 41 40 96 CALM 29.93S FOG Somerville CLOUDY 41 39 93 CALM 29.92S FOG Linden CLOUDY 41 40 97 CALM 29.93S FOG Sussex FOG 38 38 100 CALM 29.90S VSB 1 Andover N/A 38 37 97 CALM 29.91S Trenton CLOUDY 41 41 100 CALM 29.92F FOG Millville CLOUDY 42 42 100 CALM 29.92F FOG Atlantic City CLOUDY 44 41 89 S3 29.93S Wrightstown CLOUDY 41 40 97 CALM 29.90F Toms River CLOUDY 41 41 100 CALM 29.94S FOG Belmar CLOUDY 41 40 96 CALM 29.94R FOG $$ PAZ047>061-062-071-210600- EASTERN PENNSYLVANIA CITY SKY/WX TMP DP RH WIND PRES REMARKS Philadelphia CLOUDY 43 40 89 CALM 29.94S Allentown CLOUDY 40 38 93 CALM 29.92S FOG Scranton CLOUDY 39 39 100 CALM 29.87S FOG $$ CTZ002-004>006-009-010-012-RIZ004-006-007-MAZ004-011-015-210600- SOUTHERN NEW ENGLAND IN CT CITY SKY/WX TMP DP RH WIND PRES REMARKS Bradley INTL DRIZZLE 37 36 96 S3 29.91F FOG Hartford CLOUDY 38 37 97 CALM 29.92F FOG Danbury LGT RAIN 37 35 92 CALM 29.91F FOG Wtrbury/Oxford CLOUDY 36 34 93 CALM 29.90F Bridgeport LGT RAIN 41 37 86 NE3 29.91F Meriden LGT RAIN 39 35 86 CALM 29.91F New Haven LGT RAIN 39 37 92 CALM 29.91F Chester CLOUDY 37 37 100 CALM 29.90F FOG Groton CLOUDY 41 38 89 SE3 29.92F Wilimantic CLOUDY 38 36 92 CALM 29.92F FOG IN RI CITY SKY/WX TMP DP RH WIND PRES REMARKS Providence CLOUDY 39 32 76 CALM 29.93F Block Island NOT AVBL Westerly CLOUDY 42 36 79 SE3 29.93F IN MA CITY SKY/WX TMP DP RH WIND PRES REMARKS Boston CLOUDY 38 33 82 S8 29.92F WCI 32 Worcester CLOUDY 32 30 92 SW6 29.88S FOG WCI 26 Westfield CLOUDY 36 35 96 S3 29.90F Provincetown CLOUDY 38 33 82 S3 29.94F Nantucket CLOUDY 41 33 73 S5 29.94F $$ ANZ330-335-338-340-345-350-353-355-210600- COASTAL MARINE OBSERVATIONS STATION/POSITION TIME SKY/WX TEMP WIND PRES VSBY WAVE AIR SEA DIR/SP/G HT/PER (UTC) (F) (DEG/KT/KT) (MB) (MI) (FT/S) NY HARB ENTRANCE 0450 43 44 200/ 2/ 4 1013.4 3/12 20 S FIRE ISLAND 0450 44 45 180/ 2/ 2 1013.0 4/11 GREAT SOUTH BAY NOT AVBL 23 SSW MONTAUK P 0450 46 47 190/ 8/ 10 1013.6 3/11 15 E BARNEGAT LI 0430 47 N/A 4/12 HUDSON CANYON 0350 49 51 1013.1 4/ 9 KINGS POINT 0448 40 1013.0 EXECUTION ROCKS 0445 39 70/ 2/ 4 N/A CENTRAL LI SOUND 0415 40 100/ 4/ 6 N/A 0 EASTERN LI SOUND NOT AVBL ROBBINS REEF 0448 41 190/ 6/ 6 1013.6 $$ >>>>>>>>>>>>>>>>>>>>>>>>>>>> KEY <<<<<<<<<<<<<<<<<<<<<<<<<<< > < > SKY/WX - Sky Condition/Present Weather < > TMP - Temperature in Fahrenheit < > DP - Dew Point in Fahrenheit < > RH - Relative Humidity in Percent < > WIND - Direction (from) and Speed in MPH < > PRES - Mean Sea Level Pressure (inches of Hg) < > WCI - Wind Chill Index < > VSB - VISIBILITY IN MILES < > HX - HEAT INDEX < > TC - TEMPERATURE IN CELSIUS < > VRB - VARIABLE WIND DIRECTION < > < >>>>>>>>>>>>>>>>>>>>>>>>>>>> KEY <<<<<<<<<<<<<<<<<<<<<<<<<<<

USA.gov is the U.S. government's official web portal to all federal, state and local government web resources and services.